NJE268G LGMK-LGTS

Flight info

Callsign NJE268G
Flight time 0h 46m
Altitude 32000
Route VARIX UL995 KEA UN132 ROPOX UM749 SKP UL617 LEKPO
Aircraft CL60/M-SBDE1E2E3FGHIJ1J4J5J7M3RWXYZ/LB1V1D1

Departure

Time 2026-04-27 20:22
Airport Mykonos Island National Airport (LGMK)

Arrival

Time 2026-04-27 21:09
Airport Thessaloniki Macedonia International Airport (LGTS)
Time Latitude Longitude Altitude Speed Heading
2026-04-27 20:05 37.43576 25.34608 413 ft 0 kts 251°
2026-04-27 20:18 37.43575 25.34607 413 ft 0 kts 244°
2026-04-27 20:19 37.43565 25.34612 413 ft 3 kts 111°
2026-04-27 20:19 37.43550 25.34675 413 ft 10 kts 117°
2026-04-27 20:19 37.43502 25.34717 413 ft 15 kts 161°
2026-04-27 20:19 37.43406 25.34817 413 ft 14 kts 115°
2026-04-27 20:20 37.43351 25.34896 412 ft 14 kts 159°
2026-04-27 20:20 37.43236 25.34948 411 ft 19 kts 160°
2026-04-27 20:20 37.43090 25.35013 409 ft 24 kts 160°
2026-04-27 20:20 37.42910 25.35093 403 ft 29 kts 160°
2026-04-27 20:21 37.42785 25.35151 393 ft 9 kts 138°
2026-04-27 20:21 37.42729 25.35191 387 ft 10 kts 217°
2026-04-27 20:21 37.42739 25.35149 389 ft 2 kts
2026-04-27 20:21 37.42764 25.35153 391 ft 7 kts
2026-04-27 20:22 37.42788 25.35147 394 ft 0 kts 339°
2026-04-27 20:22 37.42888 25.35103 402 ft 54 kts 339°
2026-04-27 20:22 37.43588 25.34791 466 ft 148 kts 342°
2026-04-27 20:22 37.44585 25.34234 1470 ft 166 kts 332°
2026-04-27 20:23 37.45540 25.33420 2564 ft 182 kts 327°
2026-04-27 20:23 37.46312 25.31943 3187 ft 224 kts 292°
2026-04-27 20:23 37.46738 25.29878 3767 ft 257 kts 288°
2026-04-27 20:23 37.47168 25.27635 4353 ft 265 kts 288°
2026-04-27 20:24 37.47607 25.25363 4951 ft 268 kts 287°
2026-04-27 20:24 37.48018 25.23015 5566 ft 272 kts 280°
2026-04-27 20:24 37.47915 25.20633 6181 ft 281 kts 258°
2026-04-27 20:24 37.47044 25.18366 6794 ft 288 kts 234°
2026-04-27 20:25 37.45733 25.16454 7393 ft 289 kts 233°
2026-04-27 20:25 37.44826 25.14244 8139 ft 283 kts 259°
2026-04-27 20:25 37.44745 25.11717 8922 ft 303 kts 280°
2026-04-27 20:25 37.45113 25.08991 9681 ft 326 kts 282°
2026-04-27 20:26 37.45379 25.07092 10199 ft 333 kts 281°
2026-04-27 20:26 37.45916 25.03205 11240 ft 338 kts 281°
2026-04-27 20:26 37.46186 25.01234 11763 ft 341 kts 281°
2026-04-27 20:26 37.46725 24.97301 12811 ft 347 kts 280°
2026-04-27 20:27 37.47001 24.95281 13337 ft 349 kts 280°
2026-04-27 20:27 37.47555 24.91217 14396 ft 354 kts 280°
2026-04-27 20:27 37.47831 24.89187 14915 ft 356 kts 280°
2026-04-27 20:27 37.48397 24.85014 15974 ft 369 kts 280°
2026-04-27 20:28 37.48840 24.81733 16765 ft 382 kts 280°
2026-04-27 20:28 37.49294 24.78366 17540 ft 393 kts 279°
2026-04-27 20:28 37.49758 24.74919 18320 ft 401 kts 279°
2026-04-27 20:28 37.50066 24.72621 18845 ft 405 kts 279°
2026-04-27 20:29 37.50702 24.67875 19902 ft 412 kts 280°
2026-04-27 20:29 37.51017 24.65514 20423 ft 415 kts 280°
2026-04-27 20:29 37.51662 24.60673 21476 ft 419 kts 280°
2026-04-27 20:29 37.52146 24.57020 22245 ft 421 kts 280°
2026-04-27 20:30 37.52472 24.54569 22711 ft 423 kts 280°
2026-04-27 20:30 37.52955 24.50913 23332 ft 428 kts 280°
2026-04-27 20:30 37.53616 24.45902 24142 ft 432 kts 280°
2026-04-27 20:30 37.53946 24.43389 24529 ft 435 kts 280°
2026-04-27 20:31 37.54608 24.38347 25234 ft 440 kts 280°
2026-04-27 20:31 37.54964 24.35780 25586 ft 441 kts 283°
2026-04-27 20:31 37.55951 24.32102 26098 ft 443 kts 295°
2026-04-27 20:31 37.58384 24.27836 26693 ft 448 kts 315°
2026-04-27 20:32 37.60006 24.26148 26966 ft 450 kts 323°
2026-04-27 20:32 37.63489 24.23129 27500 ft 454 kts 324°
2026-04-27 20:32 37.65200 24.21649 27766 ft 455 kts 324°
2026-04-27 20:32 37.68742 24.18580 28256 ft 458 kts 324°
2026-04-27 20:33 37.70509 24.17047 28485 ft 459 kts 324°
2026-04-27 20:33 37.73142 24.14762 28790 ft 461 kts 324°
2026-04-27 20:33 37.75820 24.12434 29070 ft 463 kts 324°
2026-04-27 20:33 37.79421 24.09303 29433 ft 465 kts 324°
2026-04-27 20:34 37.82088 24.06980 29815 ft 465 kts 324°
2026-04-27 20:34 37.84782 24.04633 30386 ft 462 kts 324°
2026-04-27 20:34 37.86539 24.03099 30813 ft 459 kts 324°
2026-04-27 20:34 37.89183 24.00792 31464 ft 454 kts 324°
2026-04-27 20:35 37.92667 23.97747 32050 ft 454 kts 324°
2026-04-27 20:35 37.95291 23.95451 32106 ft 454 kts 324°
2026-04-27 20:35 38.00608 23.90793 32105 ft 459 kts 324°
2026-04-27 20:36 38.05971 23.86086 32109 ft 466 kts 324°
2026-04-27 20:36 38.10431 23.82165 32118 ft 467 kts 324°
2026-04-27 20:37 38.17164 23.77478 32118 ft 470 kts 338°
2026-04-27 20:37 38.23559 23.75444 32112 ft 473 kts 351°
2026-04-27 20:38 38.29094 23.74634 32117 ft 473 kts 352°
2026-04-27 20:38 38.35679 23.73679 32117 ft 473 kts 352°
2026-04-27 20:39 38.42293 23.72717 32137 ft 473 kts 352°
2026-04-27 20:39 38.49983 23.71598 32154 ft 472 kts 352°
2026-04-27 20:40 38.55461 23.70799 32147 ft 472 kts 352°
2026-04-27 20:40 38.62118 23.69826 32157 ft 472 kts 351°
2026-04-27 20:41 38.68659 23.68869 32160 ft 472 kts 351°
2026-04-27 20:41 38.75250 23.67903 32167 ft 472 kts 351°
2026-04-27 20:42 38.81820 23.66938 32166 ft 472 kts 351°
2026-04-27 20:42 38.88394 23.65971 32168 ft 472 kts 351°
2026-04-27 20:43 38.94965 23.65002 32179 ft 471 kts 351°
2026-04-27 20:43 39.02682 23.63862 32185 ft 472 kts 351°
2026-04-27 20:44 39.08140 23.63053 32181 ft 472 kts 351°
2026-04-27 20:44 39.14717 23.62077 32182 ft 472 kts 351°
2026-04-27 20:45 39.21129 23.60128 32183 ft 467 kts 338°
2026-04-27 20:45 39.28298 23.56675 32185 ft 467 kts 338°
2026-04-27 20:46 39.33414 23.54202 32180 ft 467 kts 338°
2026-04-27 20:46 39.39500 23.51252 32181 ft 466 kts 338°
2026-04-27 20:47 39.45576 23.48310 32180 ft 459 kts 338°
2026-04-27 20:47 39.52564 23.44925 32051 ft 455 kts 338°
2026-04-27 20:48 39.54586 23.43944 31705 ft 458 kts 338°
2026-04-27 20:48 39.57556 23.42502 31148 ft 453 kts 338°
2026-04-27 20:48 39.60519 23.41063 30578 ft 447 kts 338°
2026-04-27 20:48 39.63475 23.39626 29989 ft 442 kts 338°
2026-04-27 20:49 39.66363 23.38221 29413 ft 437 kts 338°
2026-04-27 20:49 39.69195 23.36841 28833 ft 433 kts 338°
2026-04-27 20:49 39.72037 23.35456 28255 ft 429 kts 338°
2026-04-27 20:49 39.75771 23.33633 27492 ft 423 kts 337°
2026-04-27 20:50 39.77628 23.32725 27118 ft 420 kts 337°
2026-04-27 20:50 39.80339 23.31398 26561 ft 417 kts 337°
2026-04-27 20:50 39.83057 23.30067 26012 ft 413 kts 338°
2026-04-27 20:50 39.85749 23.28747 25467 ft 410 kts 338°
2026-04-27 20:51 39.88449 23.27423 24912 ft 406 kts 338°
2026-04-27 20:51 39.91095 23.26124 24375 ft 403 kts 338°
2026-04-27 20:51 39.93716 23.24836 23840 ft 399 kts 338°
2026-04-27 20:51 39.97226 23.23110 23134 ft 395 kts 338°
2026-04-27 20:52 39.98941 23.22267 22780 ft 393 kts 338°
2026-04-27 20:52 40.02342 23.20592 22087 ft 389 kts 338°
2026-04-27 20:52 40.04044 23.19753 21737 ft 387 kts 338°
2026-04-27 20:52 40.06574 23.18505 21222 ft 384 kts 338°
2026-04-27 20:53 40.09097 23.17260 20705 ft 381 kts 338°
2026-04-27 20:53 40.11579 23.16035 20203 ft 379 kts 338°
2026-04-27 20:53 40.14035 23.14821 19701 ft 376 kts 338°
2026-04-27 20:53 40.16538 23.13583 19196 ft 373 kts 338°
2026-04-27 20:54 40.21384 23.11183 18205 ft 368 kts 338°
2026-04-27 20:54 40.23799 23.09986 17711 ft 364 kts 338°
2026-04-27 20:54 40.26177 23.08806 17224 ft 362 kts 338°
2026-04-27 20:55 40.29324 23.07243 16373 ft 360 kts 338°
2026-04-27 20:55 40.30867 23.06476 16120 ft 351 kts 339°
2026-04-27 20:55 40.33146 23.05344 15625 ft 342 kts 339°
2026-04-27 20:55 40.35370 23.04237 15194 ft 333 kts 339°
2026-04-27 20:56 40.37519 23.03167 14747 ft 326 kts 339°
2026-04-27 20:56 40.39634 23.02113 14325 ft 319 kts 339°
2026-04-27 20:56 40.41694 23.01086 13888 ft 313 kts 339°
2026-04-27 20:56 40.43734 23.00068 13479 ft 307 kts 339°
2026-04-27 20:57 40.45712 22.99050 13074 ft 301 kts 336°
2026-04-27 20:57 40.47615 22.97868 12673 ft 296 kts 334°
2026-04-27 20:57 40.49464 22.96683 12287 ft 291 kts 334°
2026-04-27 20:57 40.51889 22.95131 11768 ft 286 kts 334°
2026-04-27 20:58 40.53085 22.94365 11514 ft 283 kts 334°
2026-04-27 20:58 40.54858 22.93229 11137 ft 279 kts 334°
2026-04-27 20:58 40.56606 22.92109 10767 ft 275 kts 334°
2026-04-27 20:58 40.58325 22.91006 10401 ft 271 kts 334°
2026-04-27 20:59 40.59987 22.89940 10029 ft 267 kts 334°
2026-04-27 20:59 40.61645 22.88876 9548 ft 264 kts 334°
2026-04-27 20:59 40.63314 22.87804 9092 ft 259 kts 334°
2026-04-27 20:59 40.64896 22.86787 8751 ft 249 kts 334°
2026-04-27 21:00 40.66437 22.85796 8426 ft 239 kts 334°
2026-04-27 21:00 40.67916 22.84845 8226 ft 230 kts 334°
2026-04-27 21:00 40.69355 22.83919 8016 ft 224 kts 334°
2026-04-27 21:00 40.70761 22.83014 7761 ft 220 kts 334°
2026-04-27 21:01 40.72127 22.82134 7470 ft 211 kts 334°
2026-04-27 21:01 40.73907 22.80987 7091 ft 215 kts 333°
2026-04-27 21:01 40.74831 22.80415 6896 ft 224 kts 338°
2026-04-27 21:01 40.76392 22.80236 6593 ft 229 kts 11°
2026-04-27 21:02 40.77729 22.81307 6251 ft 225 kts 47°
2026-04-27 21:02 40.78318 22.83206 5682 ft 227 kts 84°
2026-04-27 21:02 40.78205 22.85249 5233 ft 216 kts 105°
2026-04-27 21:02 40.77474 22.86915 4900 ft 207 kts 128°
2026-04-27 21:03 40.76420 22.88155 4574 ft 199 kts 143°
2026-04-27 21:03 40.75294 22.89233 4222 ft 194 kts 147°
2026-04-27 21:03 40.74088 22.89996 3915 ft 186 kts 161°
2026-04-27 21:03 40.72410 22.90585 3562 ft 184 kts 167°
2026-04-27 21:04 40.71582 22.90844 3523 ft 185 kts 166°
2026-04-27 21:04 40.70296 22.91250 3462 ft 188 kts 166°
2026-04-27 21:04 40.69024 22.91656 3209 ft 186 kts 166°
2026-04-27 21:04 40.67762 22.92059 2990 ft 181 kts 166°
2026-04-27 21:05 40.66581 22.92436 2757 ft 168 kts 166°
2026-04-27 21:05 40.65459 22.92795 2530 ft 163 kts 166°
2026-04-27 21:05 40.64342 22.93152 2302 ft 162 kts 166°
2026-04-27 21:05 40.63234 22.93505 2089 ft 162 kts 166°
2026-04-27 21:06 40.62135 22.93856 1841 ft 160 kts 166°
2026-04-27 21:06 40.61062 22.94198 1668 ft 147 kts 166°
2026-04-27 21:06 40.60113 22.94499 1506 ft 137 kts 165°
2026-04-27 21:06 40.59198 22.94790 1300 ft 130 kts 165°
2026-04-27 21:07 40.58314 22.95073 1121 ft 129 kts 165°
2026-04-27 21:07 40.57428 22.95355 903 ft 128 kts 165°
2026-04-27 21:07 40.56564 22.95622 696 ft 126 kts 165°
2026-04-27 21:07 40.55714 22.95905 557 ft 125 kts 164°
2026-04-27 21:08 40.54857 22.96180 450 ft 126 kts 165°
2026-04-27 21:08 40.53997 22.96449 274 ft 126 kts 165°
2026-04-27 21:08 40.53134 22.96722 88 ft 125 kts 165°
2026-04-27 21:08 40.52328 22.96981 6 ft 108 kts 165°
2026-04-27 21:09 40.51691 22.97183 9 ft 63 kts 168°
2026-04-27 21:09 40.51466 22.97253 11 ft 23 kts 166°
2026-04-27 21:09 40.51318 22.97301 13 ft 18 kts 167°
2026-04-27 21:09 40.51254 22.97320 13 ft 0 kts 168°
2026-04-27 21:10 40.51239 22.97325 14 ft 16 kts 167°
2026-04-27 21:10 40.51043 22.97390 16 ft 22 kts 166°
2026-04-27 21:10 40.50961 22.97462 17 ft 15 kts 103°
2026-04-27 21:10 40.50996 22.97570 17 ft 11 kts 26°
2026-04-27 21:11 40.51109 22.97550 16 ft 21 kts 346°
2026-04-27 21:11 40.51277 22.97497 14 ft 26 kts 346°
2026-04-27 21:11 40.51472 22.97436 11 ft 29 kts 346°
2026-04-27 21:11 40.51635 22.97383 10 ft 23 kts 346°
2026-04-27 21:12 40.51808 22.97328 8 ft 25 kts 347°
2026-04-27 21:12 40.51919 22.97331 8 ft 13 kts 62°
2026-04-27 21:12 40.51913 22.97475 8 ft 17 kts 83°
2026-04-27 21:12 40.51965 22.97632 9 ft 20 kts 59°
2026-04-27 21:13 40.52026 22.97810 10 ft 20 kts 68°
2026-04-27 21:13 40.52068 22.97948 11 ft 16 kts 68°
2026-04-27 21:13 40.52102 22.98073 12 ft 11 kts 84°
2026-04-27 21:13 40.52090 22.98155 12 ft 9 kts 104°
2026-04-27 21:14 40.52075 22.98231 13 ft 6 kts 104°
2026-04-27 21:14 40.52106 22.98257 13 ft 7 kts 15°
2026-04-27 21:14 40.52126 22.98264 14 ft 1 kts 15°
2026-04-27 21:14 40.52130 22.98266 14 ft 0 kts 15°
2026-04-27 21:15 40.52129 22.98266 14 ft 0 kts 15°